Location: Assche-ter-Heiden
(50.9174°N, 4.1574°E)
Time: 04:57:15
(UTC+00:00)

NOSS 2-2 (C) - Pass Details

Date: 20 January 2020
Orbit: 484 x 1725 km, 63.3° (Epoch: 21 February)

Event Time Altitude Azimuth Distance (km) Brightness Sun altitude
Exits shadow 05:49:05 23° 235° (SW) 1,114 4.5 -16.4°
Maximum altitude 05:51:18 73° 316° (NW) 563 3.1 -16.0°
Drops below altitude 10° 05:55:38 10° 42° (NE) 1,997 6.5 -15.3°
Sets 05:58:12 0° 45° (NE) 3,068 7.6 -15.0°
